Location: Kutna Hora
(49.9500°N, 15.2670°E)
Time: 18:03:47
(UTC+02:00)

ISS - Pass Details

Date: 27 March 2019
Orbit: 408 x 410 km, 51.6° (Epoch: 22 April)

Event Time Altitude Azimuth Distance (km) Brightness Sun altitude
Rises 20:09:16 0° 268° (W) 2,336 1.1 -17.3°
Reaches altitude 10° 20:11:22 10° 271° (W) 1,475 0.0 -17.6°
Maximum altitude 20:14:39 65° 354° (N) 455 -3.6 -18.1°
Enters shadow 20:15:27 45° 56° (NE) 569 -3.4 -18.2°
